When you browse on this site, cookies collect data to enhance your experience and personalize the content and advertising you see.
Visit our Privacy Policy to learn more. By continuing to use the site, you agree to this use of cookies and data.
  • In Slovakia
  • List of Countries
  • For 7 days
  • Water Temperature
  • Weather Map
  • Weather Widgets
  • user-avatar
    Login

    Hourly Weather Wavre

    Today, 23 August, Friday

    Time Temperature Precipitation Wind Pressure Humidity
    00:00 +13°C° 0 mm 0 mps 763 mmHg 74%
    01:00 +13°C° 0 mm 0 mps 763 mmHg 75%
    02:00 +13°C° 0 mm 0 mps 763 mmHg 75%
    03:00 +13°C° 0 mm 0 mps 763 mmHg 76%
    04:00 +14°C° 0 mm 1 mps 763 mmHg 75%
    05:00 +15°C° 0 mm 1 mps 763 mmHg 75%
    06:00 +16°C° 0 mm 1 mps 763 mmHg 72%
    07:00 +19°C° 0 mm 1 mps 763 mmHg 65%
    08:00 +21°C° 0 mm 1 mps 763 mmHg 59%
    09:00 +23°C° 0 mm 2 mps 763 mmHg 53%
    10:00 +25°C° 0 mm 2 mps 763 mmHg 49%
    11:00 +26°C° 0 mm 2 mps 763 mmHg 45%
    12:00 +27°C° 0 mm 2 mps 762 mmHg 41%
    13:00 +28°C° 0 mm 2 mps 762 mmHg 40%
    14:00 +28°C° 0 mm 2 mps 762 mmHg 38%
    15:00 +29°C° 0 mm 2 mps 762 mmHg 36%
    16:00 +27°C° 0 mm 2 mps 761 mmHg 43%
    17:00 +26°C° 0 mm 3 mps 761 mmHg 49%
    18:00 +24°C° 0 mm 3 mps 761 mmHg 56%
    19:00 +22°C° 0 mm 3 mps 761 mmHg 60%
    20:00 +21°C° 0 mm 3 mps 761 mmHg 64%
    21:00 +19°C° 0 mm 3 mps 761 mmHg 68%
    22:00 +19°C° 0 mm 2 mps 761 mmHg 69%
    23:00 +18°C° 0 mm 2 mps 761 mmHg 69%

    Tomorrow, 24 August, Saturday

    Time Temperature Precipitation Wind Pressure Humidity
    00:00 +17°C° 0 mm 2 mps 760 mmHg 70%
    01:00 +17°C° 0 mm 2 mps 760 mmHg 70%
    02:00 +17°C° 0 mm 2 mps 760 mmHg 69%
    03:00 +18°C° 0 mm 1 mps 760 mmHg 69%
    04:00 +18°C° 0 mm 1 mps 760 mmHg 68%
    05:00 +19°C° 0 mm 1 mps 759 mmHg 68%
    06:00 +19°C° 0 mm 1 mps 759 mmHg 67%
    07:00 +21°C° 0 mm 2 mps 759 mmHg 61%
    08:00 +24°C° 0 mm 2 mps 759 mmHg 55%
    09:00 +26°C° 0 mm 2 mps 760 mmHg 49%
    10:00 +28°C° 0 mm 2 mps 759 mmHg 45%
    11:00 +29°C° 0 mm 2 mps 759 mmHg 42%
    12:00 +30°C° 0 mm 3 mps 758 mmHg 38%
    13:00 +30°C° 0 mm 3 mps 758 mmHg 37%
    14:00 +31°C° 0 mm 3 mps 758 mmHg 36%
    15:00 +31°C° 0 mm 3 mps 758 mmHg 35%
    16:00 +30°C° 0 mm 2 mps 757 mmHg 41%
    17:00 +28°C° 0 mm 2 mps 757 mmHg 47%
    18:00 +26°C° 0 mm 2 mps 757 mmHg 53%
    19:00 +25°C° 0 mm 2 mps 757 mmHg 56%
    20:00 +24°C° 0 mm 2 mps 757 mmHg 58%
    21:00 +21°C° 0 mm 2 mps 758 mmHg 61%
    22:00 +21°C° 0 mm 2 mps 757 mmHg 62%
    23:00 +21°C° 0 mm 1 mps 757 mmHg 64%

    Day after tomorrow, 25 August, Sunday

    Time Temperature Precipitation Wind Pressure Humidity
    00:00 +21°C° 0 mm 1 mps 757 mmHg 65%
    01:00 +20°C° 0 mm 1 mps 757 mmHg 67%
    02:00 +20°C° 0 mm 1 mps 757 mmHg 68%
    03:00 +20°C° 0 mm 1 mps 757 mmHg 69%
    04:00 +20°C° 0 mm 1 mps 757 mmHg 70%
    05:00 +21°C° 0 mm 1 mps 757 mmHg 71%
    06:00 +21°C° 0 mm 1 mps 757 mmHg 72%
    07:00 +23°C° 0 mm 1 mps 757 mmHg 66%
    08:00 +25°C° 0 mm 1 mps 757 mmHg 60%
    09:00 +27°C° 0 mm 1 mps 757 mmHg 54%
    10:00 +29°C° 0 mm 1 mps 757 mmHg 49%
    11:00 +30°C° 0 mm 1 mps 757 mmHg 44%
    12:00 +30°C° 0 mm 0 mps 757 mmHg 39%
    13:00 +30°C° 0 mm 0 mps 757 mmHg 38%
    14:00 +32°C° 0 mm 1 mps 757 mmHg 36%
    15:00 +32°C° 0 mm 1 mps 757 mmHg 34%
    16:00 +31°C° 0 mm 1 mps 757 mmHg 39%
    17:00 +29°C° 0 mm 1 mps 757 mmHg 45%
    18:00 +27°C° 0 mm 1 mps 757 mmHg 50%
    19:00 +26°C° 0 mm 2 mps 757 mmHg 53%
    20:00 +25°C° 0 mm 2 mps 757 mmHg 57%
    21:00 +23°C° 0 mm 2 mps 758 mmHg 61%
    22:00 +23°C° 0 mm 2 mps 758 mmHg 64%
    23:00 +21°C° 0 mm 2 mps 758 mmHg 67%

    26 August, Monday

    Time Temperature Precipitation Wind Pressure Humidity
    00:00 +21°C° 0 mm 1 mps 757 mmHg 69%
    01:00 +21°C° 0 mm 1 mps 757 mmHg 71%
    02:00 +21°C° 0 mm 1 mps 757 mmHg 72%
    03:00 +20°C° 0 mm 1 mps 757 mmHg 74%
    04:00 +21°C° 0 mm 1 mps 757 mmHg 73%
    05:00 +21°C° 0 mm 1 mps 757 mmHg 72%
    06:00 +21°C° 0 mm 1 mps 758 mmHg 71%
    07:00 +24°C° 0 mm 1 mps 758 mmHg 63%
    08:00 +26°C° 0 mm 2 mps 758 mmHg 56%
    09:00 +28°C° 0 mm 2 mps 758 mmHg 49%
    10:00 +29°C° 0 mm 2 mps 757 mmHg 44%
    11:00 +30°C° 0 mm 2 mps 757 mmHg 39%
    12:00 +31°C° 0 mm 2 mps 757 mmHg 34%
    13:00 +32°C° 0 mm 2 mps 757 mmHg 33%
    14:00 +32°C° 0 mm 2 mps 756 mmHg 32%
    15:00 +32°C° 0 mm 2 mps 756 mmHg 31%
    16:00 +31°C° 0 mm 2 mps 756 mmHg 37%
    17:00 +29°C° 0 mm 2 mps 756 mmHg 43%
    18:00 +28°C° 0 mm 2 mps 755 mmHg 49%
    19:00 +26°C° 0 mm 2 mps 756 mmHg 54%
    20:00 +25°C° 0 mm 2 mps 756 mmHg 59%
    21:00 +23°C° 0 mm 2 mps 756 mmHg 63%
    22:00 +23°C° 0 mm 2 mps 756 mmHg 65%
    23:00 +21°C° 0 mm 2 mps 756 mmHg 67%

    27 August, Tuesday

    Time Temperature Precipitation Wind Pressure Humidity
    00:00 +21°C° 0 mm 2 mps 755 mmHg 68%
    01:00 +21°C° 0 mm 2 mps 755 mmHg 70%
    02:00 +20°C° 0 mm 2 mps 755 mmHg 72%
    03:00 +20°C° 0 mm 2 mps 755 mmHg 75%
    04:00 +20°C° 0 mm 2 mps 755 mmHg 72%
    05:00 +21°C° 0 mm 2 mps 755 mmHg 69%
    06:00 +21°C° 0 mm 2 mps 755 mmHg 66%
    07:00 +24°C° 0 mm 2 mps 754 mmHg 59%
    08:00 +27°C° 0 mm 2 mps 754 mmHg 53%
    09:00 +29°C° 0 mm 2 mps 754 mmHg 47%
    10:00 +30°C° 0 mm 3 mps 754 mmHg 44%
    11:00 +31°C° 0 mm 3 mps 754 mmHg 41%
    12:00 +33°C° 0 mm 3 mps 754 mmHg 38%
    13:00 +33°C° 0 mm 3 mps 753 mmHg 37%
    14:00 +34°C° 0 mm 3 mps 753 mmHg 37%
    15:00 +34°C° 0 mm 3 mps 753 mmHg 37%
    16:00 +31°C° 0 mm 3 mps 753 mmHg 43%
    17:00 +30°C° 0 mm 2 mps 753 mmHg 49%
    18:00 +28°C° 0 mm 2 mps 753 mmHg 55%
    19:00 +27°C° 0 mm 3 mps 754 mmHg 59%
    20:00 +25°C° 0 mm 3 mps 754 mmHg 64%
    21:00 +24°C° 0 mm 3 mps 754 mmHg 69%
    22:00 +22°C° 0 mm 3 mps 754 mmHg 70%
    23:00 +22°C° 0 mm 4 mps 755 mmHg 71%

    28 August, Wednesday

    Time Temperature Precipitation Wind Pressure Humidity
    00:00 +21°C° 0 mm 4 mps 755 mmHg 72%
    01:00 +21°C° 0 mm 4 mps 755 mmHg 76%
    02:00 +20°C° 0 mm 4 mps 755 mmHg 79%
    03:00 +20°C° 0 mm 4 mps 755 mmHg 82%
    04:00 +19°C° 0 mm 4 mps 755 mmHg 83%
    05:00 +17°C° 0 mm 5 mps 755 mmHg 85%
    06:00 +17°C° 0 mm 5 mps 756 mmHg 86%
    07:00 +19°C° 0 mm 5 mps 756 mmHg 80%
    08:00 +20°C° 0 mm 5 mps 756 mmHg 73%
    09:00 +21°C° 0 mm 5 mps 757 mmHg 67%
    10:00 +22°C° 0 mm 5 mps 757 mmHg 61%
    11:00 +23°C° 0 mm 5 mps 757 mmHg 55%
    12:00 +25°C° 0 mm 5 mps 757 mmHg 49%
    13:00 +26°C° 0 mm 5 mps 757 mmHg 49%
    14:00 +26°C° 0 mm 5 mps 757 mmHg 49%
    15:00 +26°C° 0 mm 5 mps 757 mmHg 48%
    16:00 +25°C° 0 mm 4 mps 757 mmHg 52%
    17:00 +24°C° 0 mm 3 mps 757 mmHg 56%
    18:00 +22°C° 0 mm 3 mps 757 mmHg 60%
    19:00 +21°C° 0 mm 2 mps 758 mmHg 63%
    20:00 +19°C° 0 mm 2 mps 758 mmHg 67%
    21:00 +18°C° 0 mm 2 mps 758 mmHg 71%
    22:00 +18°C° 0 mm 2 mps 759 mmHg 74%
    23:00 +17°C° 0 mm 2 mps 759 mmHg 77%
    Show more